CHINASAT 9C

Last updated on Thu Aug 13 2026 00:03:03 GMT+0000 (Coordinated Universal Time)

1 64470U 25132A 26224.59559332 -.00000264 00000+0 00000+0 0 9992 2 64470 0.0210 194.3512 0003389 306.2137 127.0693 1.00268999 4710
UTC large
Height (km)
Speed (km/s)
/
Latitude / Longitude
Inclination (degrees)
Orbital Period (minutes)
Azimuth
Elevation
Range (km)
Doppler Factor

Next 0 passes for location: London (51.5072 / 0.1276)

No passes found over London.
CHINASAT 9C